Prudenville, MI

11:09 PM EST on December 04, 2016 (GMT -0500)
Roscommon County

Weather History for KHTL - October, 2012

Change the Weather History Date:

Tuesday, October 16, 2012

  Actual Average Record
Temperature  
Mean Temperature 42 °F 46 °F  
Max Temperature 56 °F 56 °F 86 °F (1938)
Min Temperature 28 °F 36 °F 19 °F (1940)
Degree Days  
Heating Degree Days 23 19  
Month to date heating degree days 283 267  
Since 1 July heating degree days 586 648  
Cooling Degree Days 0 0  
Month to date cooling degree days 0 0  
Year to date cooling degree days 547 285  
Moisture  
Dew Point 33 °F    
Average Humidity 72    
Maximum Humidity 92    
Minimum Humidity 51    
Precipitation  
Precipitation T in 0.08 in 0.94 in (1954)
Month to date precipitation 2.20 1.37  
Year to date precipitation 28.33 23.59  
Snow  
Snow 0.00 in 0.00 in 1.70 in (1943)
Month to date snowfall T 0.1  
Since 1 July snowfall T 0.1  
Snow Depth 0.00 in    
Sea Level Pressure  
Sea Level Pressure 29.89 in    
Wind  
Wind Speed 5 mph (SSE)    
Max Wind Speed 15 mph    
Max Gust Speed 21 mph    
Visibility 7 miles    
Events Rain    
T = Trace of Precipitation, MM = Missing Value Source: NWS Daily Summary

Daily Weather History Graph

Daily Weather History Graph

Search for Another Location

Airport or City:

Trip Planner

Search our weather history database for the weather conditions in past years. The results will help you decide how hot, cold, wet, or windy it might be!

Date:

Astronomy

Oct. 16, 2012 Rise Set
Actual Time 7:55 AM EDT 6:51 PM EDT
Civil Twilight 7:26 AM EDT 7:21 PM EDT
Nautical Twilight 6:52 AM EDT 7:54 PM EDT
Astronomical Twilight 6:18 AM EDT 8:28 PM EDT
Moon 9:22 AM EDT (10/16) 7:30 PM EDT (10/16)
Length of Visible Light 11h 55m
Length of Day
10h 56m
New Moon, 2% of the Moon is Illuminated
Oct 16
New Moon
Oct 21
First Quarter
Oct 29
Full
Nov 6
Last Quarter
Nov 13
New

Hourly Weather History & Observations

Time (EDT) Temp. Windchill Dew Point Humidity Pressure Visibility Wind Dir Wind Speed Gust Speed Precip Events Conditions
12:53 AM 42.1 °F - 35.1 °F 76% 29.95 in 10.0 mi Calm Calm - N/A   Overcast
1:53 AM 41.0 °F 39.0 °F 34.0 °F 76% 29.96 in 10.0 mi NW 3.5 mph - N/A   Mostly Cloudy
2:06 AM 39.2 °F - 33.8 °F 81% 29.93 in 10.0 mi Calm Calm - N/A   Scattered Clouds
2:53 AM 33.1 °F - 30.9 °F 92% 29.96 in 10.0 mi Calm Calm - N/A   Clear
3:35 AM 32.0 °F - 30.2 °F 93% 29.92 in 1.8 mi Calm Calm - N/A   Clear
3:42 AM 30.2 °F - 30.2 °F 100% 29.92 in 1.5 mi Calm Calm - N/A   Clear
3:45 AM 30.2 °F 26.7 °F 28.4 °F 93% 29.92 in 2.0 mi ENE 3.5 mph - N/A   Clear
3:50 AM 30.2 °F 26.7 °F 28.4 °F 93% 29.92 in 1.5 mi East 3.5 mph - N/A   Clear
3:53 AM 30.9 °F - 28.9 °F 92% 29.95 in 1.0 mi Calm Calm - N/A   Mist
4:04 AM 32.0 °F - 30.2 °F 93% 29.92 in 1.2 mi Calm Calm - N/A   Partly Cloudy
4:07 AM 32.0 °F - 30.2 °F 93% 29.92 in 2.5 mi Calm Calm - N/A   Partly Cloudy
4:14 AM 30.2 °F - 30.2 °F 100% 29.93 in 10.0 mi Calm Calm - N/A   Partly Cloudy
4:53 AM 30.9 °F - 28.9 °F 92% 29.96 in 9.0 mi Calm Calm - N/A   Clear
4:59 AM 30.2 °F - 28.4 °F 93% 29.93 in 1.8 mi Calm Calm - N/A   Clear
5:04 AM 30.2 °F - 28.4 °F 93% 29.92 in 1.0 mi Calm Calm - N/A   Clear
5:12 AM 30.2 °F - 28.4 °F 93% 29.93 in 0.8 mi Calm Calm - N/A   Clear
5:17 AM 30.2 °F - 28.4 °F 93% 29.93 in 1.2 mi Calm Calm - N/A   Clear
5:22 AM 30.2 °F - 28.4 °F 93% 29.93 in 2.0 mi Calm Calm - N/A   Clear
5:32 AM 30.2 °F - 28.4 °F 93% 29.93 in 4.0 mi Calm Calm - N/A   Clear
5:53 AM 28.9 °F - 27.0 °F 92% 29.96 in 10.0 mi Calm Calm - N/A   Clear
6:44 AM 30.2 °F - 28.4 °F 93% 29.94 in 3.0 mi Calm Calm - N/A   Partly Cloudy
6:53 AM 28.9 °F - 27.0 °F 92% 29.97 in 3.0 mi Calm Calm - N/A   Clear
6:58 AM 30.2 °F - 28.4 °F 93% 29.94 in 1.8 mi Calm Calm - N/A   Clear
7:06 AM 28.4 °F - 26.6 °F 93% 29.93 in 3.0 mi Calm Calm - N/A   Clear
7:53 AM 28.9 °F - 27.0 °F 92% 29.96 in 10.0 mi Calm Calm - N/A   Clear
8:53 AM 32.0 °F - 30.0 °F 92% 29.97 in 10.0 mi Calm Calm - N/A   Clear
9:53 AM 42.1 °F 37.7 °F 37.0 °F 82% 29.95 in 10.0 mi SW 6.9 mph - N/A   Clear
10:53 AM 46.0 °F 42.5 °F 36.0 °F 68% 29.93 in 10.0 mi SSW 6.9 mph - N/A   Clear
11:53 AM 48.9 °F - 39.0 °F 69% 29.91 in 10.0 mi South 6.9 mph - N/A   Overcast
12:53 PM 53.1 °F - 39.0 °F 59% 29.88 in 10.0 mi South 8.1 mph - N/A   Clear
1:53 PM 54.0 °F - 39.0 °F 57% 29.84 in 10.0 mi South 9.2 mph - N/A   Scattered Clouds
2:53 PM 55.0 °F - 37.9 °F 53% 29.83 in 10.0 mi SSW 9.2 mph - N/A   Clear
3:53 PM 55.0 °F - 39.0 °F 55% 29.81 in 10.0 mi South 9.2 mph - N/A   Clear
4:53 PM 53.1 °F - 39.0 °F 59% 29.78 in 10.0 mi South 8.1 mph - N/A   Clear
5:53 PM 54.0 °F - 39.0 °F 57% 29.75 in 10.0 mi SSE 10.4 mph - N/A   Clear
6:53 PM 51.1 °F - 37.9 °F 61% 29.74 in 10.0 mi SE 4.6 mph - N/A   Clear
7:53 PM 48.9 °F - 37.9 °F 66% 29.76 in 10.0 mi Calm Calm - N/A   Clear
8:53 PM 42.1 °F 38.4 °F 37.0 °F 82% 29.75 in 10.0 mi ESE 5.8 mph - N/A   Partly Cloudy
9:53 PM 48.9 °F - 37.9 °F 66% 29.71 in 10.0 mi SE 4.6 mph - 0.00 in Rain Light Rain
10:53 PM 52.0 °F - 39.0 °F 61% 29.71 in 10.0 mi SSE 6.9 mph 20.7 mph 0.00 in   Mostly Cloudy
11:53 PM 51.1 °F - 39.0 °F 63% 29.70 in 10.0 mi SSE 5.8 mph - N/A   Mostly Cloudy